Location: Boiro
(42.6475°N, 8.8834°W)
Time: 13:05:07
(UTC+01:00)

Envisat - Pass Details

Date: 31 October 2021
Orbit: 764 x 766 km, 98.2° (Epoch: 07 December)

Event Time Altitude Azimuth Distance (km) Brightness Sun altitude
Rises 05:58:19 0° 22° (NNE) 3,241 6.6 -24.3°
Reaches altitude 10° 06:00:52 10° 32° (NNE) 2,309 5.9 -23.9°
Maximum altitude 06:05:26 33° 96° (E) 1,272 4.7 -23.0°
Drops below altitude 10° 06:09:58 10° 160° (SSE) 2,293 5.7 -22.2°
Sets 06:12:28 0° 170° (S) 3,214 6.4 -21.8°
